Regional Weather Roundup
Issued by NWS Albany, NY

Home | Current Version | Previous Version | Text Only | Print | Product List | Glossary On
Versions: 1 2 3 4 5 6 7 8 9 10 11 12 13 14 15 16 17 18 19 20 21 22 23 24 25 26 27 28 29 30 31 32 33 34 35 36 37 38 39 40 41 42 43 44 45 46 47 48 49 50
000
ASUS41 KALY 011810
RWRALY

NEW YORK STATE HOURLY WEATHER ROUNDUP
NATIONAL WEATHER SERVICE ALBANY NY
200 PM EDT TUE SEP 01 2015

NOTE: "FAIR" INDICATES FEW OR NO CLOUDS BELOW 12,000 FEET WITH NO
SIGNIFICANT WEATHER AND/OR NO OBSTRUCTIONS TO VISIBILITY.

NYZ032-033-038>043-046>054-057>066-NYZ062>081-011900-
EAST


CITY           SKY/WX    TMP DP  RH WIND       PRES   REMARKS
ALBANY         MOSUNNY   83  64  52 CALM      30.05S
GLENS FALLS    SUNNY     82  58  43 MISG      30.05S
POUGHKEEPSIE   MOSUNNY   85  61  44 CALM      30.04F
NEWBURGH       MOSUNNY   82  64  54 VRB6      30.07F
MONTGOMERY     SUNNY     86  61  42 E7        30.06S
WHITE PLAINS   MOSUNNY   84  62  47 SE7       30.05F
ISLIP          MOSUNNY   83  63  50 SE14      30.03S
NEW YORK CITY  MOSUNNY   86  60  41 NE8       30.04S
CENTRAL PARK   MOSUNNY   88  62  41 VRB3      30.07S
$$

NYZ005>009-017-018-044>046-055-056-011900-
CENTRAL


CITY           SKY/WX    TMP DP  RH WIND       PRES   REMARKS
FULTON         CLOUDY    74  68  81 S3        30.08F HAZE
SYRACUSE       CLOUDY    76  68  76 SW5       30.08S HAZE
ROME           CLOUDY    75  67  76 VRB5      30.09F
ELMIRA         SUNNY     82  66  58 SW9       30.08F
BINGHAMTON     PTSUNNY   78  65  63 E7        30.11F
MONTICELLO     PTSUNNY   81  61  50 CALM      30.12S
$$

NYZ026>034-041>043-011900-
NORTH


CITY           SKY/WX    TMP DP  RH WIND       PRES   REMARKS
WATERTOWN      MOSUNNY   77  67  71 W10       30.06S HAZE
FORT DRUM      NOT AVBL
MASSENA        MOSUNNY   80  65  59 SW6       30.03F
SARANAC LAKE   SUNNY     78  51  38 W6        30.08F
PLATTSBURGH    SUNNY     76  64  66 SE9       30.04S
$$

NYZ001>004-010>016-019>021-011900-
WEST


CITY           SKY/WX    TMP DP  RH WIND       PRES   REMARKS
NIAGARA FALLS  MOSUNNY   81  67  62 SW7       30.06F
BUFFALO        MOSUNNY   80  63  55 SW12      30.08F
DUNKIRK        SUNNY     80  66  62 W9        30.09F
JAMESTOWN      PTSUNNY   79  63  57 W7        30.13F
WELLSVILLE     SUNNY     82  58  43 MISG      30.16F
ROCHESTER      MOSUNNY   83  65  54 SW7       30.06F
PENN YAN       SUNNY     81  65  58 CALM      30.09F
$$

             KEY
       WCI = WIND CHILL INDEX
       VSB = VISIBILITY
       HX  = HEAT INDEX
$$


USA.gov is the U.S. government's official web portal to all federal, state and local government web resources and services.